This is the latest recevied weather packets stored in our database for station/object IN3XSV-13. If no packets are shown the sender has not sent any weather packets the latest 10 day(s).
| Time | Temp. | Humidity | Pressure | Rain* | Wind** | Luminosity | Snow |
|---|---|---|---|---|---|---|---|
| 1777811933 | 24.44° C | 33% | 9956 hPa | 0 mm | - | - | - |
| 1777811633 | 24.44° C | 33% | 9955.8 hPa | 0 mm | - | - | - |
| 1777811333 | 25° C | 34% | 9956 hPa | 0 mm | - | - | - |
| 1777811033 | 25.56° C | 33% | 9956 hPa | 0 mm | - | - | - |
| 1777810734 | 25° C | 33% | 9956.1 hPa | 0 mm | - | - | - |
| 1777810433 | 25° C | 33% | 9956.1 hPa | 0 mm | - | - | - |
| 1777810134 | 25.56° C | 33% | 9956.1 hPa | 0 mm | - | - | - |
| 1777809834 | 25.56° C | 33% | 9956.3 hPa | 0 mm | - | - | - |
| 1777809534 | 25° C | 33% | 9956.2 hPa | 0 mm | - | - | - |
| 1777809234 | 26.11° C | 32% | 9956.4 hPa | 0 mm | - | - | - |
| 1777808934 | 26.11° C | 32% | 9956.4 hPa | 0 mm | - | - | - |
| 1777808634 | 25.56° C | 33% | 9956.2 hPa | 0 mm | - | - | - |
| 1777808334 | 24.44° C | 33% | 9956.4 hPa | 0 mm | - | - | - |
| 1777808034 | 25° C | 33% | 9956.4 hPa | 0 mm | - | - | - |
| 1777807734 | 25° C | 33% | 9956.4 hPa | 0 mm | - | - | - |
| 1777807434 | 25° C | 35% | 9956.6 hPa | 0 mm | - | - | - |
| 1777807134 | 25° C | 35% | 9956.5 hPa | 0 mm | - | - | - |
| 1777806834 | 24.44° C | 36% | 9956.5 hPa | 0 mm | - | - | - |
| 1777806534 | 23.89° C | 36% | 9956.6 hPa | 0 mm | - | - | - |
| 1777806234 | 25° C | 35% | 9956.6 hPa | 0 mm | - | - | - |
| 1777805934 | 24.44° C | 36% | 9956.8 hPa | 0 mm | - | - | - |
| 1777805634 | 23.89° C | 36% | 9956.9 hPa | 0 mm | - | - | - |
| 1777805334 | 24.44° C | 36% | 9956.9 hPa | 0 mm | - | - | - |
| 1777805034 | 25° C | 35% | 9957 hPa | 0 mm | - | - | - |
| 1777804734 | 24.44° C | 36% | 9957 hPa | 0 mm | - | - | - |
* Rain latest hour (hover to see other rain measurements)
** Current wind speed in m/s (hover to see current wind gust speed)